Location: Newark
(18.8808°N, 99.0693°W)
Time: 03:32:02
(UTC+00:00)

N. Korean satellite - Pass Details

Date: 25 August 2019
Orbit: 455 x 509 km, 97.2° (Epoch: 21 September)

Event Time Altitude Azimuth Distance (km) Brightness Sun altitude
Rises 11:24:42 0° 44° (NE) 2,513 11.3 -13.5°
Drops below altitude 10° 11:29:01 10° 95° (E) 1,618 10.4 -12.5°
Maximum altitude 11:29:04 10° 96° (E) 1,618 10.4 -12.5°
Sets 11:33:22 0° 149° (SSE) 2,471 10.4 -11.5°
